EW5207 Weather Reports


Display with metric or nautical units.
time (UTC)temp
F
wind
direction
speed
MPH
gust
MPH
rain 1hr
in
rain 24hr
in
rain mn
in
humidity
%
barometer
mb
20190218121105 33 5 0.0 1.0 0.00 0.16 0.05 96 1008.2
20190218120609 33 15 0.0 0.0 0.00 0.16 0.05 96 1008.1
20190218120100 33 24 0.0 0.0 0.00 0.16 0.05 96 1008.1
20190218115603 33 24 0.0 0.0 0.00 0.16 0.05 96 1007.9
20190218115054 33 24 0.0 0.0 0.00 0.16 0.05 96 1008.0
20190218114553 33 24 0.0 0.0 0.00 0.16 0.05 96 1007.8
20190218114052 33 24 0.0 0.0 0.00 0.16 0.05 96 1007.7
20190218113549 33 24 0.0 0.0 0.00 0.16 0.05 96 1007.4
20190218113048 33 24 0.0 0.0 0.00 0.16 0.05 96 1007.8
20190218112541 33 24 0.0 0.0 0.00 0.16 0.05 96 1007.9
20190218112042 33 24 0.0 0.0 0.00 0.16 0.05 96 1007.9
20190218111542 33 24 0.0 0.0 0.00 0.16 0.05 96 1008.0
20190218111042 33 24 0.0 0.0 0.00 0.16 0.05 96 1007.9
20190218110543 33 24 0.0 0.0 0.00 0.16 0.05 96 1007.8
20190218110044 33 24 0.0 0.0 0.00 0.16 0.05 96 1007.9
20190218105537 33 24 0.0 0.0 0.00 0.16 0.05 96 1008.1
20190218105037 33 24 0.0 0.0 0.00 0.16 0.05 96 1007.8
20190218104537 33 24 0.0 0.0 0.00 0.16 0.05 96 1007.8
20190218104037 33 24 0.0 0.0 0.00 0.16 0.05 96 1007.8
20190218103539 33 24 0.0 0.0 0.00 0.16 0.05 96 1007.4
20190218103033 33 24 0.0 0.0 0.00 0.16 0.05 96 1007.1
20190218102531 33 24 0.0 0.0 0.00 0.16 0.05 96 1007.6
20190218102036 33 24 0.0 0.0 0.00 0.16 0.05 96 1007.7
20190218101532 33 24 0.0 0.0 0.00 0.16 0.05 96 1007.5
20190218101029 33 24 0.0 0.0 0.00 0.16 0.05 96 1007.4
20190218100530 33 24 0.0 0.0 0.00 0.16 0.05 96 1007.6
20190218100031 33 24 0.0 0.0 0.00 0.16 0.05 96 1007.4
20190218095526 33 24 0.0 0.0 0.00 0.16 0.05 96 1007.6
20190218095034 33 24 0.0 0.0 0.01 0.16 0.05 96 1008.1
20190218094528 33 24 0.0 0.0 0.01 0.16 0.05 96 1008.3
20190218094024 33 24 0.0 0.0 0.01 0.16 0.05 96 1007.7
20190218093519 33 24 0.0 0.0 0.01 0.16 0.05 96 1007.8
20190218093021 33 24 0.0 0.0 0.02 0.16 0.05 96 1007.8
20190218092521 33 24 0.0 0.0 0.02 0.16 0.05 96 1007.7
20190218092020 33 96 1.0 3.0 0.02 0.16 0.05 96 1007.4
20190218091517 33 96 1.0 4.0 0.03 0.16 0.05 96 1006.8
20190218091018 33 5 1.0 4.0 0.03 0.16 0.05 96 1008.3
20190218090514 33 5 0.0 3.0 0.03 0.16 0.05 96 1008.3
20190218090014 33 101 0.0 2.0 0.04 0.16 0.05 96 1007.5
20190218085516 33 101 0.0 2.0 0.04 0.16 0.05 96 1006.8
20190218085017 33 131 1.0 4.0 0.03 0.15 0.04 96 1006.3
20190218084517 33 131 0.0 4.0 0.03 0.15 0.04 96 1006.8
20190218084016 33 130 0.0 0.0 0.03 0.15 0.04 96 1008.2
20190218083517 33 130 0.0 0.0 0.03 0.15 0.04 96 1007.8
20190218083009 33 130 0.0 0.0 0.02 0.14 0.03 96 1007.9
20190218082510 33 130 0.0 2.0 0.02 0.14 0.03 96 1007.7
20190218082008 33 132 1.0 3.0 0.03 0.14 0.03 96 1007.6
20190218081510 33 132 0.0 3.0 0.02 0.13 0.02 96 1007.7
20190218081010 33 5 0.0 0.0 0.02 0.13 0.02 96 1008.4
20190218080512 33 5 0.0 0.0 0.02 0.13 0.02 95 1008.7
20190218080000 33 137 0.0 3.0 0.01 0.12 0.01 95 1007.8
20190218075459 33 138 0.0 3.0 0.01 0.12 0.01 95 1007.4
20190218074956 33 114 0.0 0.0 0.01 0.12 0.01 96 1008.7
20190218074454 33 5 0.0 0.0 0.01 0.12 0.01 95 1009.1
20190218073952 33 5 0.0 0.0 0.01 0.12 0.01 95 1008.7
20190218073453 33 113 0.0 0.0 0.01 0.12 0.01 95 1007.9
20190218072945 33 46 0.0 3.0 0.01 0.12 0.01 95 1009.2
20190218072445 33 115 0.0 3.0 0.01 0.12 0.01 95 1008.1
20190218071946 33 107 1.0 4.0 0.00 0.11 0.00 95 1008.2
20190218071446 33 5 1.0 4.0 0.00 0.11 0.00 95 1008.8
20190218070947 33 149 2.0 4.0 0.00 0.11 0.00 95 1008.2
20190218070447 33 148 1.0 4.0 0.00 0.11 0.00 95 1008.9
20190218065940 33 325 1.0 4.0 0.00 0.11 0.00 95 1010.8
20190218065440 33 5 1.0 5.0 0.00 0.11 0.00 95 1009.9
20190218064936 33 325 1.0 5.0 0.00 0.11 0.00 95 1010.4
20190218064435 33 332 1.0 5.0 0.00 0.11 0.00 95 1010.1
20190218063933 33 342 1.0 5.0 0.00 0.11 0.00 95 1007.9
20190218063434 32 111 2.0 6.0 0.00 0.11 0.00 95 1008.0
20190218062932 33 132 2.0 6.0 0.00 0.11 0.00 95 1008.4
20190218062434 33 128 0.0 0.0 0.00 0.11 0.00 95 1009.9
20190218061930 33 128 0.0 0.0 0.00 0.11 0.00 95 1010.5
20190218061428 33 97 0.0 0.0 0.00 0.11 0.00 95 1010.4
20190218060930 33 94 0.0 4.0 0.00 0.11 0.00 95 1010.9
20190218060428 33 117 0.0 4.0 0.00 0.11 0.00 95 1010.8
20190218055926 33 5 2.0 4.0 0.00 0.11 0.00 95 1011.2
20190218055423 33 5 2.0 4.0 0.00 0.11 0.00 95 1011.5
20190218054924 32 30 1.0 5.0 0.00 0.11 0.00 95 1010.0
20190218054424 32 96 1.0 5.0 0.00 0.11 0.00 95 1009.9
20190218053922 32 157 1.0 5.0 0.00 0.11 0.00 95 1009.5
20190218053426 32 172 1.0 5.0 0.00 0.11 0.00 95 1009.8
20190218052924 32 134 0.0 3.0 0.00 0.11 0.00 95 1010.6
20190218052421 32 80 0.0 0.0 0.00 0.11 0.00 95 1010.6
20190218051920 32 66 0.0 0.0 0.00 0.11 0.00 95 1011.0
20190218051420 32 134 0.0 0.0 0.00 0.11 0.00 95 1011.1
20190218050920 32 134 0.0 0.0 0.01 0.11 0.00 95 1010.6
20190218050420 32 150 0.0 0.0 0.01 0.11 0.00 95 1010.6
20190218045920 32 150 0.0 0.0 0.02 0.11 0.11 95 1010.5
20190218045414 32 150 0.0 0.0 0.02 0.11 0.11 95 1010.8
20190218044914 32 150 0.0 0.0 0.02 0.11 0.11 95 1010.6
20190218044413 32 152 0.0 0.0 0.02 0.11 0.11 95 1011.1
20190218043913 32 156 0.0 0.0 0.02 0.11 0.11 95 1010.9
20190218043412 32 156 0.0 0.0 0.03 0.11 0.11 95 1011.3
20190218042908 32 156 0.0 0.0 0.03 0.11 0.11 95 1011.5
20190218042405 32 156 0.0 0.0 0.03 0.11 0.11 95 1011.8
20190218041901 32 156 0.0 0.0 0.03 0.11 0.11 95 1012.0
20190218041400 32 156 0.0 0.0 0.03 0.11 0.11 95 1012.0
20190218040857 32 156 0.0 0.0 0.02 0.10 0.10 94 1012.0
20190218040359 32 119 0.0 2.0 0.02 0.10 0.10 94 1012.1
20190218035858 32 119 0.0 2.0 0.01 0.09 0.09 94 1011.8
20190218035357 32 159 0.0 2.0 0.01 0.09 0.09 94 1011.4
20190218034856 32 180 0.0 2.0 0.01 0.09 0.09 94 1012.0
20190218034356 32 185 0.0 0.0 0.02 0.09 0.09 94 1012.4
20190218033856 32 185 0.0 0.0 0.02 0.09 0.09 94 1012.4
20190218033355 32 244 0.0 2.0 0.02 0.08 0.08 94 1013.1
20190218032855 32 244 0.0 2.0 0.02 0.08 0.08 94 1013.2
20190218032349 32 311 0.0 0.0 0.03 0.08 0.08 94 1012.7
20190218031847 32 312 0.0 1.0 0.04 0.08 0.08 94 1012.9
20190218031347 32 312 0.0 15.0 0.05 0.08 0.08 94 1013.0
20190218030849 32 172 1.0 15.0 0.06 0.08 0.08 94 1012.3
20190218030349 32 277 3.0 15.0 0.06 0.08 0.08 94 1012.6
20190218025849 32 123 4.0 15.0 0.07 0.08 0.08 94 1009.4
20190218025344 32 155 4.0 7.0 0.07 0.08 0.08 93 1009.9
20190218024843 32 135 3.0 5.0 0.07 0.08 0.08 93 1011.9
20190218024345 32 147 2.0 5.0 0.06 0.07 0.07 93 1012.7
20190218023843 32 146 1.0 3.0 0.07 0.07 0.07 93 1013.8
20190218023343 32 131 0.0 3.0 0.06 0.06 0.06 93 1013.8
20190218022843 32 131 0.0 3.0 0.06 0.06 0.06 92 1013.9
20190218022346 32 131 0.0 3.0 0.05 0.05 0.05 92 1013.9
20190218021842 32 131 0.0 3.0 0.04 0.04 0.04 92 1013.5
20190218021341 32 176 0.0 3.0 0.03 0.03 0.03 92 1013.4
20190218020840 32 176 1.0 4.0 0.02 0.02 0.02 92 1013.5
20190218020342 32 177 1.0 4.0 0.02 0.02 0.02 91 1013.6
20190218015838 32 182 1.0 4.0 0.01 0.01 0.01 91 1013.5
20190218015336 32 117 1.0 3.0 0.01 0.01 0.01 91 1012.9
20190218014831 32 117 2.0 4.0 0.01 0.01 0.01 90 1012.8
20190218014329 32 156 2.0 4.0 0.01 0.01 0.01 90 1012.8
20190218013829 32 130 2.0 4.0 0.00 0.00 0.00 89 1012.7
20190218013331 32 106 2.0 4.0 0.00 0.00 0.00 89 1013.0
20190218012825 32 121 2.0 5.0 0.00 0.00 0.00 88 1013.1
20190218012323 32 135 2.0 5.0 0.00 0.00 0.00 88 1013.3
20190218011825 32 122 2.0 4.0 0.00 0.00 0.00 87 1013.0
20190218011326 32 140 2.0 4.0 0.00 0.00 0.00 87 1013.1
20190218010820 32 149 2.0 4.0 0.00 0.00 0.00 86 1013.2
20190218010317 32 165 2.0 5.0 0.00 0.00 0.00 86 1013.3
20190218005818 32 165 2.0 5.0 0.00 0.00 0.00 85 1013.3
20190218005318 32 176 2.0 5.0 0.00 0.00 0.00 85 1013.5
20190218004816 32 148 2.0 5.0 0.00 0.00 0.00 84 1013.7
20190218004315 32 155 2.0 4.0 0.00 0.00 0.00 84 1013.5
20190218003815 32 139 2.0 5.0 0.00 0.00 0.00 83 1013.6
20190218003317 32 160 2.0 5.0 0.00 0.00 0.00 83 1013.3
20190218002814 32 147 1.0 5.0 0.00 0.00 0.00 83 1013.0
20190218002311 32 157 1.0 5.0 0.00 0.00 0.00 82 1012.9
20190218001812 32 167 2.0 5.0 0.00 0.00 0.00 81 1013.4
20190218001312 32 120 2.0 4.0 0.00 0.00 0.00 81 1013.3
20190218000809 32 114 2.0 5.0 0.00 0.00 0.00 81 1013.4
20190218000309 32 126 2.0 5.0 0.00 0.00 0.00 81 1013.7
20190217235809 32 123 1.0 4.0 0.00 0.00 0.00 81 1013.9
20190217235311 32 122 0.0 4.0 0.00 0.00 0.00 80 1014.2
20190217234811 32 136 1.0 4.0 0.00 0.00 0.00 80 1014.2
20190217234309 32 140 2.0 4.0 0.00 0.00 0.00 79 1014.1
20190217233811 32 118 1.0 4.0 0.00 0.00 0.00 79 1014.3
20190217233310 32 115 1.0 4.0 0.00 0.00 0.00 77 1014.3
20190217232810 33 115 1.0 4.0 0.00 0.00 0.00 77 1014.3
20190217232310 33 116 1.0 4.0 0.00 0.00 0.00 76 1014.5
20190217231809 33 117 1.0 4.0 0.00 0.00 0.00 76 1015.0
20190217231308 32 148 0.0 4.0 0.00 0.00 0.00 76 1015.2
20190217230814 32 169 1.0 4.0 0.00 0.00 0.00 75 1015.4
20190217230311 32 169 1.0 4.0 0.00 0.00 0.00 75 1015.3
20190217225809 33 175 1.0 6.0 0.00 0.00 0.00 75 1015.2
20190217225309 32 167 1.0 6.0 0.00 0.00 0.00 74 1015.2
20190217224809 32 166 1.0 6.0 0.00 0.00 0.00 74 1014.8
20190217224311 33 101 1.0 6.0 0.00 0.00 0.00 73 1014.6
20190217223811 33 198 1.0 4.0 0.00 0.00 0.00 73 1014.9
20190217223308 33 159 1.0 4.0 0.00 0.00 0.00 72 1015.0
20190217222808 33 159 1.0 4.0 0.00 0.00 0.00 73 1015.1
20190217222310 33 160 2.0 5.0 0.00 0.00 0.00 72 1015.3
20190217221808 33 160 2.0 5.0 0.00 0.00 0.00 72 1015.6
20190217221306 33 186 1.0 5.0 0.00 0.00 0.00 72 1015.8
20190217220804 33 163 0.0 4.0 0.00 0.00 0.00 72 1016.2
20190217220305 33 206 1.0 4.0 0.00 0.00 0.00 72 1016.0
20190217215800 33 206 2.0 4.0 0.00 0.00 0.00 71 1016.0
20190217215300 33 206 1.0 4.0 0.00 0.00 0.00 71 1015.9
20190217214757 33 207 1.0 4.0 0.00 0.00 0.00 71 1015.5
20190217214256 33 134 1.0 4.0 0.00 0.00 0.00 70 1015.4
20190217213758 33 134 1.0 4.0 0.00 0.00 0.00 69 1015.5
20190217213258 33 132 1.0 5.0 0.00 0.00 0.00 69 1015.4
20190217212755 33 141 2.0 5.0 0.00 0.00 0.00 69 1015.2
20190217212256 33 166 2.0 4.0 0.00 0.00 0.00 68 1015.3
20190217211755 33 182 2.0 4.0 0.00 0.00 0.00 69 1015.4
20190217211257 33 182 2.0 4.0 0.00 0.00 0.00 68 1015.5
20190217210749 33 185 2.0 5.0 0.00 0.00 0.00 68 1015.7
20190217210250 33 190 3.0 5.0 0.00 0.00 0.00 68 1015.6
20190217205750 33 166 3.0 5.0 0.00 0.00 0.00 68 1015.8
20190217205250 33 153 3.0 5.0 0.00 0.00 0.00 68 1015.7
20190217204750 33 155 2.0 5.0 0.00 0.00 0.00 68 1015.6
20190217204249 33 130 2.0 5.0 0.00 0.00 0.00 67 1015.6
20190217203750 33 166 2.0 7.0 0.00 0.00 0.00 67 1015.7
20190217203248 33 166 2.0 7.0 0.00 0.00 0.00 67 1015.6
20190217202751 33 167 3.0 7.0 0.00 0.00 0.00 67 1015.7
20190217202243 33 117 2.0 7.0 0.00 0.00 0.00 67 1015.8
20190217201742 33 199 1.0 4.0 0.00 0.00 0.00 67 1015.8
20190217201244 33 199 2.0 6.0 0.00 0.00 0.00 66 1015.6
20190217200743 33 188 2.0 6.0 0.00 0.00 0.00 66 1015.7
20190217200245 33 189 2.0 5.0 0.00 0.00 0.00 66 1016.0
20190217195742 33 200 1.0 5.0 0.00 0.00 0.00 66 1016.2
20190217195244 33 111 1.0 4.0 0.00 0.00 0.00 66 1016.2
20190217194744 33 147 3.0 5.0 0.00 0.00 0.00 66 1016.3
20190217194239 33 137 3.0 5.0 0.00 0.00 0.00 66 1016.3
20190217193738 33 180 3.0 5.0 0.00 0.00 0.00 66 1016.2
20190217193238 33 156 3.0 8.0 0.00 0.00 0.00 66 1015.9
20190217192738 33 102 4.0 8.0 0.00 0.00 0.00 66 1015.7
20190217192240 33 144 4.0 6.0 0.00 0.00 0.00 66 1015.7
20190217191738 33 5 3.0 6.0 0.00 0.00 0.00 65 1016.0
20190217191238 33 5 3.0 7.0 0.00 0.00 0.00 65 1016.4
20190217190741 33 161 3.0 7.0 0.00 0.00 0.00 64 1017.0
20190217190238 33 141 3.0 6.0 0.00 0.00 0.00 63 1016.7
20190217185738 33 167 2.0 5.0 0.00 0.00 0.00 64 1017.3
20190217185237 33 144 2.0 5.0 0.00 0.00 0.00 64 1017.2
20190217184737 33 144 1.0 5.0 0.00 0.00 0.00 62 1017.5
20190217184237 33 113 0.0 4.0 0.00 0.00 0.00 61 1018.2
20190217183737 33 113 1.0 4.0 0.00 0.00 0.00 61 1018.8
20190217183238 33 113 2.0 4.0 0.00 0.00 0.00 61 1018.3
20190217182737 33 223 1.0 4.0 0.00 0.00 0.00 61 1019.0
20190217182236 33 219 1.0 4.0 0.00 0.00 0.00 61 1018.8
20190217181733 32 123 2.0 4.0 0.00 0.00 0.00 60 1018.3
20190217181231 32 126 2.0 4.0 0.00 0.00 0.00 60 1018.4
20190217180733 33 130 2.0 4.0 0.00 0.00 0.00 60 1018.4
20190217180231 33 97 1.0 3.0 0.00 0.00 0.00 60 1018.2
20190217175732 33 109 1.0 3.0 0.00 0.00 0.00 60 1018.3
20190217175228 33 109 1.0 3.0 0.00 0.00 0.00 60 1018.6
20190217174728 33 220 0.0 3.0 0.00 0.00 0.00 60 1018.6
20190217174230 33 220 1.0 4.0 0.00 0.00 0.00 60 1019.0
20190217173729 33 220 1.0 4.0 0.00 0.00 0.00 60 1019.0
20190217173223 32 212 0.0 2.0 0.00 0.00 0.00 60 1019.2
20190217172723 32 212 1.0 3.0 0.00 0.00 0.00 61 1019.2
20190217172222 32 212 1.0 3.0 0.00 0.00 0.00 61 1019.8
20190217171722 32 167 1.0 3.0 0.00 0.00 0.00 60 1019.6
20190217171224 32 159 1.0 3.0 0.00 0.00 0.00 61 1019.0
20190217170721 32 186 0.0 2.0 0.00 0.00 0.00 61 1019.0
20190217170221 32 189 1.0 4.0 0.00 0.00 0.00 62 1019.6
20190217165723 32 142 2.0 5.0 0.00 0.00 0.00 62 1019.3
20190217165220 32 159 2.0 5.0 0.00 0.00 0.00 62 1019.2
20190217164718 32 214 3.0 5.0 0.00 0.00 0.00 61 1019.1
20190217164218 32 192 3.0 4.0 0.00 0.00 0.00 62 1019.6
20190217163710 32 143 2.0 5.0 0.00 0.00 0.00 62 1020.3
20190217163210 32 194 3.0 6.0 0.00 0.00 0.00 62 1020.6
20190217162710 32 170 3.0 6.0 0.00 0.00 0.00 61 1020.4
20190217162213 32 161 2.0 6.0 0.00 0.00 0.00 60 1020.0
20190217161706 32 216 2.0 5.0 0.00 0.00 0.00 61 1019.8
20190217161205 32 181 2.0 8.0 0.00 0.00 0.00 59 1019.5
20190217160704 33 130 2.0 8.0 0.00 0.00 0.00 60 1019.2
20190217160206 32 102 4.0 10.0 0.00 0.00 0.00 58 1018.8
20190217155705 33 134 4.0 11.0 0.00 0.00 0.00 59 1017.9
20190217155204 33 49 4.0 11.0 0.00 0.00 0.00 59 1016.7
20190217154706 33 131 3.0 6.0 0.00 0.00 0.00 61 1016.7
20190217154203 31 94 3.0 7.0 0.00 0.00 0.00 61 1017.8
20190217153701 31 74 3.0 7.0 0.00 0.00 0.00 62 1018.8
20190217153159 31 121 3.0 7.0 0.00 0.00 0.00 61 1019.0
20190217152659 32 142 3.0 7.0 0.00 0.00 0.00 61 1019.0
20190217152200 32 159 3.0 7.0 0.00 0.00 0.00 60 1019.0
20190217151701 31 81 2.0 6.0 0.00 0.00 0.00 63 1019.1
20190217151155 31 182 2.0 5.0 0.00 0.00 0.00 63 1019.2
20190217150653 30 5 3.0 7.0 0.00 0.00 0.00 63 1019.2
20190217150152 31 5 3.0 7.0 0.00 0.00 0.00 63 1019.1
20190217145652 30 5 2.0 7.0 0.00 0.00 0.00 65 1019.0
20190217145154 31 5 4.0 7.0 0.00 0.00 0.00 64 1018.9
20190217144651 29 5 4.0 7.0 0.00 0.00 0.00 65 1019.1
20190217144151 30 5 4.0 7.0 0.00 0.00 0.00 63 1018.9
20190217143650 30 5 3.0 8.0 0.00 0.00 0.00 66 1018.8
20190217143151 30 5 3.0 8.0 0.00 0.00 0.00 67 1018.9
20190217142651 29 5 4.0 8.0 0.00 0.00 0.00 67 1019.1
20190217142151 29 5 4.0 8.0 0.00 0.00 0.00 68 1019.0
20190217141650 28 5 3.0 7.0 0.00 0.00 0.00 69 1019.1
20190217141150 28 5 4.0 7.0 0.00 0.00 0.00 70 1019.1
20190217140653 27 5 3.0 7.0 0.00 0.00 0.00 70 1019.1
20190217140146 27 5 3.0 7.0 0.00 0.00 0.00 70 1019.3
20190217135649 27 5 4.0 7.0 0.00 0.00 0.00 71 1019.2
20190217135146 27 5 4.0 7.0 0.00 0.00 0.00 72 1019.1
20190217134646 26 5 4.0 8.0 0.00 0.00 0.00 73 1019.1
20190217134146 26 5 4.0 8.0 0.00 0.00 0.00 74 1019.3
20190217133647 26 5 3.0 7.0 0.00 0.00 0.00 75 1019.4
20190217133147 25 5 3.0 7.0 0.00 0.00 0.00 76 1019.2
20190217132646 25 5 4.0 7.0 0.00 0.00 0.00 77 1019.3
20190217132147 24 5 4.0 7.0 0.00 0.00 0.00 77 1019.0
20190217131646 24 5 3.0 7.0 0.00 0.00 0.00 78 1018.8
20190217131146 24 5 2.0 5.0 0.00 0.00 0.00 78 1019.0
20190217130648 24 5 3.0 5.0 0.00 0.00 0.00 79 1019.3
20190217130147 24 5 3.0 5.0 0.00 0.00 0.00 79 1019.4
20190217125648 24 5 1.0 3.0 0.00 0.00 0.00 81 1019.4
20190217125140 23 5 1.0 3.0 0.00 0.00 0.00 81 1019.3
20190217124641 23 5 0.0 2.0 0.00 0.00 0.00 81 1019.3
20190217124139 23 5 0.0 0.0 0.00 0.00 0.00 81 1019.3
20190217123640 23 5 0.0 0.0 0.00 0.00 0.00 82 1019.4
20190217123141 23 5 0.0 0.0 0.00 0.00 0.00 82 1019.3
20190217122641 23 5 0.0 0.0 0.00 0.00 0.00 82 1019.3
20190217122143 23 5 0.0 0.0 0.00 0.00 0.00 82 1019.4
20190217121639 22 5 0.0 0.0 0.00 0.00 0.00 82 1019.2